2024-166A

Last updated on Fri Oct 18 2024 00:02:03 GMT+0000 (Coordinated Universal Time)

1 61179U 24166A 24291.56082687 .00066745 00000+0 32484-3 0 9994 2 61179 96.7638 186.4308 0016026 126.5377 233.7372 15.82025921 4782

Satellite not in orbit

2024-166A